Showing default

MIMIR 1, 68490

Orbit data source: Space-Track

MIMIR 1, 68490 is a payload satellite owned by Space Norway (NO) in SSO that was launched on Mon, 30 Mar 2026 UTC via an FALCON 9 launch vehicle from the Air Force Western Test Range (AFWTR). Payload-class satellites include a variety of spacecraft equipped with specific instruments for various scientific and technological missions. These include communications satellites like Starlink; space stations such as the ISS; scientific satellites like the Hubble; Earth observation satellites from companies like Planet Labs, Umbra, and HawkEye 360; GPS; miniature CubeSats for education and research; and military/defense satellites.

Loading next visibility...
Identifier
68490, 2026-067CC
Orbit
SSO
Country
Flag of NONO / NOR
Related business
Manufacturer
OHB-SE
Mission
Operational spacecraft
Bus & Motor
MIMIR, Unknown motor
Mass
93 kg wet, 93 kg dry
Launch date (UTC)
2026-03-30 (2 months ago)
Launch vehicle
FALCON 9
Launch site
Air Force Western Test Range (AFWTR)
Object type
Payload
Rocket body
Debris
Shape & HBR
Unknown shape, 1.1 m
Radar Cross Section
Large (>1 m²)

Expand to show TLE details & history
Last TLE update: 3 days ago

TLE from 3 days ago
0 MIMIR 1
1 68490U 26067CC  26154.45122534  .00002337  00000-0  24183-3 0  9998
2 68490  97.7610 112.8849 0003991  81.2890 278.8780 14.91017456  9672
Epoch: 2026-06-03T10:49Z
TLE epoch observation values (Epoch: 2026-06-03T10:49:45.869Z)
Latitude
-0.00004°
Longitude
58.53413°
Altitude
597.374 km
Speed
7.561 km/s
True Right ascension
07h 31m 32s
True Declination
0° 00' 00"
Sunlit
Object was in daylight at epoch
Visualization orbit readout
Latitude
Unknown
Longitude
Unknown
Altitude
Unknown
Speed
Unknown
Apparent Right ascension
Unknown
Apparent Declination
Unknown
Sunlit
N/A
Visualization observer readout
Local Sidereal Time
02:41:21
Azimuth
Unknown
Elevation
Unknown
Doppler factor
Unknown
Orbital elements
Apogee altitude
594.563 km
Perigee altitude
589 km
Semi-major axis
6,969.919 km
Eccentricity
0.0004
Inclination
97.761°
RAAN
112.8849°
Arg. of periapsis
81.289°
True anomaly
278.83281°
Mean anomaly
278.878°
Eccentric anomaly
278.85541°
Mean motion
3.72994 °/min
Orbital period
96.52 mins
BSTAR
0.00024183
Loading maneuver chart data...
Computing Atmospheric mass density...
Loading historical data...
Loading historical data...
Loading historical data...
Loading historical data...
Loading historical data...
Loading historical data...
Loading historical data...

Documentation

Showing up to 5 results
|